Погода в Ставросе

Греция     35°35′13″N   24°05′30″E
темп.,
°C
ветер,
м/с
пор.,
м/с
влажн.,
%
обл.,
%
осадки,
мм/ч
давл.,
гПа
погр.,
м
17 сентября, пт
пт1700:00+23зюз23424 0.0 101848
03:00+23ююз22425 0.0 101735
06:00+22ю11470 0.0 101622
09:00+26вюв12370 0.0 1016365
12:00+28св33330 0.0 1016890
15:00+29ссв32330 0.0 1015810
18:00+27сз23370 0.0 1015431
21:00+25зюз33480 0.0 101557
18 сентября, сб
сб1800:00+25зюз34450 0.0 101564
03:00+25зюз33470 0.0 101451
06:00+25юз33450 0.0 101345
09:00+29зюз35350 0.0 1014227
12:00+31сз56380 0.0 1014894
15:00+31зсз68380 0.0 1013688
18:00+30з57400 0.0 1013422
21:00+27зюз33420 0.0 101428
19 сентября, вс
вс1900:00+27зюз44380 0.0 101438
03:00+27юз33380 0.0 101432
06:00+27юз33370 0.0 101427
09:00+30зюз46300 0.0 1015309
12:00+32зсз68310 0.0 1016750
15:00+31зсз79340 0.0 1015753
18:00+30з68360 0.0 1015475
21:00+27зюз44370 0.0 101647
20 сентября, пн
пн2000:00+27юз44360 0.0 101645
03:00+26зюз34390 0.0 101535
06:00+26юз44390 0.0 101539
09:00+29з36340 0.0 1015319
12:00+32зсз68330 0.0 1016999
15:00+32зсз89340 0.0 1014995
18:00+30з79351 0.0 1014585
21:00+27зюз34360 0.0 101539
21 сентября, вт
вт2100:00+27юз33320 0.0 101526
03:00+27юз33330 0.0 101524
06:00+26юз33330 0.0 101422
09:00+29зюз34310 0.0 1015190
12:00+31зсз56330 0.0 10161026
15:00+31сз57370 0.0 1015928
18:00+29зсз47403 0.0 1015408
21:00+27юз33370 0.0 101620